Погода Ярково

Погода Ярково : погода сейчас, прогноз погоды и архив. Всё, что Вы хотите узнать о погоде Ярково!

Хотите узнать прогноз погоды Ярково? Тогда Вам сюда: Погода Ярково

Поиск расширенной информации на нашем сайте:

Другие новости

Новости СМИ2

Главная страница сайта

Новости сайта

03.07.2017

Напоминаем, что на нашем специализированном сайте Метеоцентр.Азия вы можете получить высокодетализированные автоматические прогнозы погоды по пунктам России, СНГ и мира в авиационном формате (включающие направление и скорость ветра, видимость, явления погоды, количество и форму облачности, нижнюю и верхнюю границу облачности).


Погода Ярково - сегодня

Время (UTC), дата Ветер
(°,м/с) 
Видим.   Явления Облачность Т
(°С)
Тd
(°С)
f(%) Тe
(°С)
Pmin
(гПа)
dP
(гПа)
Po
(мм)
O2
(г/м3)
Тmin Tmax R s Состояние
почвы
03 18.05.18 020 (С) 5-10{11}  4000 м  слаб. дождь  10/0 средняя 
[As op]
+1.9 -0.2 86 -1  1012.6  3.4  755  302  +1.9    0.3    мокрая 
12 18.05.18 020 (С) 5-10{13}  10 км    ясно 
+6.3 -10.2 30 +4  1020.9  2.2  761  301           
18 18.05.18 040 (СВ) 10 км    ясно 
-1.2 -7.8 61 -1  1024.7  1.8  764  310           
21 18.05.18 тихо ()   10 км    ясно 
-4.6 -7.2 82 -5  1025.7  0.9  764  314           
00 19.05.18 250 (З) 10 км    3/0 верхняя 
[Ci sp]
-4.9 -6.4 89 -4  1027.1  1.3  765  315           
03 19.05.18 220 (ЮЗ) 10 км    6/0 верхняя 
[Cs]
+4.4 -7.9 40 +4  1027.3  0.4  766  304  -5.6        влажная 
06 19.05.18 210 (ЮЗ) 10 км    6/0 верхняя 
[Cs]
+8.2 -10.4 26 +8  1025.9  -1.4  765  300           
09 19.05.18 190 (Ю) 4{11}  10 км    6/0 верхняя 
[Cs]
+12.4 -11.9 17 +12  1023.9  -1.8  763  295           
12 19.05.18 220 (ЮЗ) 3{10}  10 км    8/0 средняя, верхняя 
[Ac As|Cs]
+13.6 -10.7 17 +14  1022  -1.9  762  293           
15 19.05.18 210 (ЮЗ) 4000 м  слаб. дождь  10/0 средняя 
[Ac As]
+9.8 -3.1 40 +9  1020.9  -1.1  761  296    +13.6  0.0     
18 19.05.18 170 (Ю) 10 км  {дождь}  10/0 средняя 
[Ac As]
+8.2 -0.4 55 +8  1018.8  -2.1  760  297           
21 19.05.18 170 (Ю) 4000 м  слаб. дождь  10/0 средняя 
[Ac As]
+9.7 -2.3 43 +9  1015.4  -3.3  757  295           
00 20.05.18 170 (Ю) 10 км  {дождь}  10/0 средняя 
[Ac As]
+10.6 -2.6 39 +10  1012.2  -3.1  755  293           
03 20.05.18 200 (Ю) 10 км  {ливн. осадки}  10/10 1000 м кучево-дожд. 
[Cb cap]
+13.7 +0.3 40 +14  1011.2  -1  754  289  +7.8    0.4     
06 20.05.18 220 (ЮЗ) 10 км  {ливн. осадки}  3/0 верхняя 
[Ci fib]
+21.5 +7.1 39 +22  1008.9  -2.1  752  280           
12 20.05.18 240 (ЮЗ) 4{12}  10 км    8/4 1000 м верхняя 
[Cu med, cong|Cs]
+28.9 +5.4 23 +29  1005.7  -1.4  750  272           
15 20.05.18 230 (ЮЗ) 3{18}  10 км    9/3 600 м кучево-дожд., средняя, верхняя 
[Cb cap|Ac lent|Cs]
+23.4 +6 32 +23  1005.8  0.1  750  277    +29       
18 20.05.18 220 (ЮЗ) 10 км    8/5 600 м кучево-дожд., средняя 
[Cb cap|Ac trans]
+17.5 +9.5 59 +19  1006  750  282           
21 20.05.18 280 (З) 10 км    8/3 600 м кучево-дожд., средняя 
[Cb cap|Ac trans]
+17.3 +8.4 56 +18  1006.6  0.6  751  283           
00 21.05.18 290 (З) 10 км    5/0 средняя, верхняя 
[Ac lent|Cc]
+15 +9.2 68 +16  1008.1  1.4  752  285           
03 21.05.18 340 (С) 4000 м  слаб. ливневой дождь  10/10 600 м кучево-дожд. 
[Cb cap]
+12.4 +9.2 81 +12  1011.5  3.3  754  289  +12.4    0.0     
09 21.05.18 330 (СЗ) 10 км    9/9 1000 м 
[Sc]
+12 +3.6 56 +11  1016.9  2.2  758  292           
12 21.05.18 310 (СЗ) 10 км    10/10 1000 м 
[Sc]
+10.9 +3.1 59 +10  1018.2  1.4  759  294           
18 21.05.18 010 (С) 10 км    10/10 1000 м 
[Sc]
+8.5 +2.8 67 +9  1019.8  0.8  760  297           
21 21.05.18 300 (СЗ) 10 км    3/3 1000 м кучево-дожд. 
[Cb cap]
+6.1 +2.4 77 +7  1019.2  -0.7  760  299           
Время (UTC), дата Ветер
(°,м/с) 
Видим.   Явления Облачность Т
(°С)
Тd
(°С)
f(%) Тe
(°С)
Pmin
(гПа)
dP
(гПа)
Po
(мм)
O2
(г/м3)
Тmin Tmax R s Состояние
почвы

Для получения пояснительной информации подведите курсор к названию столбца.

ПОГОДА Ярково - архив

Всё, что Вы хотите узнать о погоде Ярково - удобно и подробно!

Выберите нужную дату (начиная с 1 января 2015* года) и нажмите кнопку "Найти".
Будут отображены архивные сводки погоды по пункту Ярково, начиная с указанной даты.


Отображать данные в формате CSV (для использования в таблицах Excel)


Внимание! Наш архив погоды предназначен исключительно для личного некоммерческого использования в познавательных целях. Если Вам необходимы официальные справки о состоянии погоды (для производственных, юридических, коммерческих и т.п. целей), обращайтесь в органы Росгидромета.

*Примечание: данная дата относится к архиву по метеостанциям СССР (Россия, СНГ, Балтия).
Архив по метеостанциям Зарубежной Европы и Азии (кроме Китая) хранится 10 дней, по другим регионам земного шара (Китай, Африка, Америка, Австралия, Океания) - 1 день.

Ярково - район местоположения метеостанции


Название, широта, долгота, высота метеостанции:
Ярково 57.4°ш. 67.1°д. 50 м над ур. моря [Российская Федерация]

Дополнительная информация

В oтличие oт бoльшинства пoгoдных сайтoв мы публикуем пoдрoбную метеoинфoрмацию в детальнoм прoфессиoнальнoм фoрмате.

Характеристики температуры и влажнoсти вoздуха измеряются на высoте 2 м в тени вдали oт зданий и деревьев.
Скoрoсть ветра измеряется на высoте 10 м (на урoвне рoста челoвека скoрoсть ветра ниже в 1.5-2 раза). Если метеoстанция нахoдится в гoрoде или в лесу, тo скoрoсть ветра занижена на 2-4 м/с пo сравнению с oткрытым местoм. Скoрoсть ветра над акватoриями крупных рек и oзёр, а также на вершинах хoлмoв на 2-5 м/с выше, чем в oбычных услoвиях.
Атмoсфернoе давление в разных тoчках местнoсти мoжет значительнo oтличаться oт давления на метеoстанции, в зависимoсти oт услoвий рельефа (при пoдъёме на 10 м давление пoнижается примернo на 1 мм рт.ст.).